Location: Famechon
(49.7599°N, 2.0615°E)
Time: 22:34:18
(UTC+00:00)

Cosmos 1980 Rocket - Pass Details

Date: 03 February 2023
Orbit: 828 x 850 km, 71.0° (Epoch: 31 March)

Event Time Altitude Azimuth Distance (km) Brightness Sun altitude
Rises 18:43:48 0° 254° (WSW) 3,393 6.9 -18.6°
Reaches altitude 10° 18:46:47 10° 269° (W) 2,466 5.9 -19.1°
Maximum altitude 18:51:10 23° 320° (NW) 1,746 4.2 -19.8°
Drops below altitude 10° 18:55:37 10° 11° (NNE) 2,484 4.5 -20.5°
Enters shadow 18:57:17 - 21° (NNE) 2,985 4.8 -20.8°
